Location: Unspecified
(0.0000°N, 0.0000°E)
Time: 08:46:14
(UTC+00:00)

A-11 Canister half - Pass Details

Date: 15 June 2024
Orbit: 1515 x 1684 km, 47.2° (Epoch: 23 July)

Event Time Altitude Azimuth Distance (km) Brightness Sun altitude
Rises 04:30:21 0° 320° (NW) 4,674 11.4 -20.6°
Reaches altitude 10° 04:33:24 10° 320° (NW) 3,681 10.8 -19.9°
Maximum altitude 04:42:40 89° 230° (SW) 1,516 8.9 -17.8°
Drops below altitude 10° 04:51:57 10° 141° (SE) 3,689 11.2 -15.7°
Sets 04:55:00 0° 141° (SE) 4,685 11.7 -15.0°
